Location: Unspecified
(43.8044°N, 11.0278°E)
Time: 20:10:22
(UTC+01:00)

Okean 3 - Visible Passes

Search period start: 31 October 2014 00:00
Search period end: 10 November 2014 00:00
Orbit: 583 x 609 km, 82.5° (Epoch: 31 October)

Date Brightness Start Highest point End Pass type
(mag) Time Alt. Az. Time Alt. Az. Time Alt. Az.
01 Nov 6.6 05:34:10 10° NE 05:35:58 12° ENE 05:37:45 10° E visible
02 Nov 6.3 05:43:16 10° NNE 05:46:17 18° ENE 05:49:15 10° ESE visible
03 Nov 5.7 05:52:52 10° NNE 05:56:32 27° ENE 06:00:09 10° SE visible
04 Nov 4.9 06:02:40 10° N 06:06:43 42° ENE 06:10:43 10° SSE visible
05 Nov 3.9 06:12:37 10° N 06:16:51 67° E 06:21:02 10° SSE visible
05 Nov 5.1 18:41:34 10° SSE 18:43:07 20° SE 18:43:07 20° SE visible
05 Nov 6.5 20:19:43 10° WSW 20:19:54 11° WSW 20:19:54 11° WSW visible
06 Nov 3.4 06:22:41 10° NNW 06:26:56 77° W 06:31:07 10° S visible
06 Nov 3.7 18:51:17 10° S 18:54:52 50° SE 18:54:52 50° SE visible
06 Nov 6.6 20:30:59 10° W 20:31:39 12° W 20:31:39 12° W visible
07 Nov 6.4 04:56:46 10° NNE 04:59:16 15° ENE 05:01:46 10° ESE visible
07 Nov 3.4 19:01:14 10° S 19:05:33 88° E 19:06:34 52° N visible
08 Nov 5.9 05:06:10 10° NNE 05:09:32 23° ENE 05:12:52 10° SE visible
08 Nov 5.3 17:36:59 10° ESE 17:38:49 13° E 17:40:38 10° ENE visible
08 Nov 4.0 19:11:23 10° SSW 19:15:39 59° W 19:18:11 23° N visible
09 Nov 5.2 05:15:51 10° N 05:19:44 34° ENE 05:23:33 10° SE visible
09 Nov 4.8 17:45:38 10° SE 17:48:41 19° E 17:51:44 10° NE visible
09 Nov 4.9 19:21:46 10° SW 19:25:47 37° WNW 19:29:38 11° N visible
